Location: *
(41.3833°S, 177.8333°W)
Time: 18:29:44
(UTC+00:00)

SL-08 R/B - Pass Details

Date: 01 April 2020
Orbit: 673 x 740 km, 98.4° (Epoch: 30 May)

Event Time Altitude Azimuth Distance (km) Brightness Sun altitude
Rises 16:01:55 0° 175° (S) 3,070 6.9 -24.2°
Reaches altitude 10° 16:04:15 10° 181° (S) 2,152 6.0 -23.8°
Enters shadow 16:07:23 34° 213° (SSW) 1,142 4.2 -23.3°
